When you browse on this site, cookies collect data to enhance your experience and personalize the content and advertising you see.
Visit our Privacy Policy to learn more. By continuing to use the site, you agree to this use of cookies and data.

Meteo pe oră la Dzielce

Astăzi, 26 Septembrie, Sâmbătă

Timp Temperatura Precipitaţii Vânt Presiune Umiditate
00:00 +19°C° 0 mm 4 m/s 730 mmHg 76%
01:00 +19°C° 0 mm 4 m/s 730 mmHg 75%
02:00 +18°C° 0 mm 3 m/s 729 mmHg 73%
03:00 +18°C° 0 mm 3 m/s 729 mmHg 74%
04:00 +17°C° 0 mm 3 m/s 728 mmHg 75%
05:00 +17°C° 0 mm 3 m/s 728 mmHg 75%
06:00 +17°C° 0 mm 4 m/s 728 mmHg 74%
07:00 +17°C° 0 mm 5 m/s 727 mmHg 72%
08:00 +17°C° 0 mm 6 m/s 727 mmHg 71%
09:00 +19°C° 0 mm 6 m/s 727 mmHg 70%
10:00 +20°C° 0 mm 7 m/s 727 mmHg 69%
11:00 +21°C° 0 mm 7 m/s 727 mmHg 69%
12:00 +21°C° 0.2 mm 7 m/s 727 mmHg 70%
13:00 +21°C° 0.2 mm 6 m/s 727 mmHg 71%
14:00 +20°C° 0.2 mm 5 m/s 727 mmHg 72%
15:00 +19°C° 0.8 mm 4 m/s 728 mmHg 79%
16:00 +18°C° 0.8 mm 3 m/s 728 mmHg 85%
17:00 +17°C° 0.8 mm 2 m/s 728 mmHg 91%
18:00 +17°C° 1.3 mm 2 m/s 728 mmHg 91%
19:00 +16°C° 1.3 mm 2 m/s 728 mmHg 91%
20:00 +16°C° 1.3 mm 1 m/s 728 mmHg 90%
21:00 +15°C° 4 mm 2 m/s 728 mmHg 92%
22:00 +15°C° 4 mm 2 m/s 728 mmHg 94%
23:00 +15°C° 4 mm 2 m/s 728 mmHg 96%

Mâine, 27 Septembrie, Duminică

Timp Temperatura Precipitaţii Vânt Presiune Umiditate
00:00 +14°C° 2 mm 3 m/s 728 mmHg 96%
01:00 +14°C° 2 mm 3 m/s 727 mmHg 96%
02:00 +14°C° 2 mm 4 m/s 727 mmHg 96%
03:00 +13°C° 4.5 mm 5 m/s 727 mmHg 96%
04:00 +13°C° 4.5 mm 5 m/s 727 mmHg 95%
05:00 +13°C° 4.5 mm 6 m/s 726 mmHg 95%
06:00 +11°C° 3.4 mm 7 m/s 727 mmHg 95%
07:00 +10°C° 3.4 mm 7 m/s 727 mmHg 94%
08:00 +9°C° 3.4 mm 8 m/s 728 mmHg 93%
09:00 +9°C° 1.3 mm 8 m/s 729 mmHg 93%
10:00 +9°C° 1.3 mm 8 m/s 729 mmHg 92%
11:00 +9°C° 1.3 mm 8 m/s 730 mmHg 91%
12:00 +9°C° 0.8 mm 7 m/s 732 mmHg 89%
13:00 +9°C° 0.8 mm 6 m/s 733 mmHg 88%
14:00 +9°C° 0.8 mm 5 m/s 734 mmHg 86%
15:00 +9°C° 0.3 mm 5 m/s 735 mmHg 86%
16:00 +10°C° 0.3 mm 4 m/s 735 mmHg 87%
17:00 +10°C° 0.3 mm 4 m/s 736 mmHg 87%
18:00 +10°C° 0 mm 3 m/s 737 mmHg 89%
19:00 +10°C° 0 mm 3 m/s 737 mmHg 90%
20:00 +9°C° 0 mm 3 m/s 738 mmHg 92%
21:00 +9°C° 0 mm 3 m/s 739 mmHg 92%
22:00 +9°C° 0 mm 2 m/s 739 mmHg 92%
23:00 +9°C° 0 mm 2 m/s 740 mmHg 92%

Poimâine, 28 Septembrie, Luni

Timp Temperatura Precipitaţii Vânt Presiune Umiditate
00:00 +8°C° 0 mm 2 m/s 740 mmHg 91%
01:00 +8°C° 0 mm 2 m/s 740 mmHg 90%
02:00 +8°C° 0 mm 2 m/s 740 mmHg 89%
03:00 +8°C° 0 mm 3 m/s 740 mmHg 89%
04:00 +7°C° 0 mm 3 m/s 741 mmHg 88%
05:00 +7°C° 0 mm 3 m/s 741 mmHg 87%
06:00 +8°C° 0 mm 3 m/s 741 mmHg 84%
07:00 +9°C° 0 mm 3 m/s 741 mmHg 82%
08:00 +9°C° 0 mm 3 m/s 741 mmHg 79%
09:00 +11°C° 0 mm 4 m/s 741 mmHg 75%
10:00 +13°C° 0 mm 4 m/s 741 mmHg 72%
11:00 +14°C° 0 mm 5 m/s 741 mmHg 68%
12:00 +15°C° 0 mm 5 m/s 741 mmHg 69%
13:00 +15°C° 0 mm 4 m/s 741 mmHg 69%
14:00 +17°C° 0 mm 4 m/s 741 mmHg 70%
15:00 +17°C° 0 mm 4 m/s 740 mmHg 71%
16:00 +17°C° 0 mm 4 m/s 740 mmHg 72%
17:00 +17°C° 0 mm 4 m/s 740 mmHg 73%
18:00 +16°C° 0 mm 3 m/s 740 mmHg 77%
19:00 +14°C° 0 mm 3 m/s 739 mmHg 81%
20:00 +14°C° 0 mm 2 m/s 739 mmHg 85%
21:00 +14°C° 0 mm 2 m/s 739 mmHg 86%
22:00 +13°C° 0 mm 2 m/s 739 mmHg 87%
23:00 +13°C° 0 mm 2 m/s 739 mmHg 88%

29 Septembrie, Marţi

Timp Temperatura Precipitaţii Vânt Presiune Umiditate
00:00 +13°C° 0 mm 2 m/s 739 mmHg 87%
01:00 +13°C° 0 mm 1 m/s 739 mmHg 87%
02:00 +13°C° 0 mm 1 m/s 739 mmHg 86%
03:00 +13°C° 0.1 mm 1 m/s 738 mmHg 87%
04:00 +13°C° 0.1 mm 1 m/s 738 mmHg 87%
05:00 +13°C° 0.1 mm 1 m/s 738 mmHg 87%
06:00 +13°C° 2.7 mm 1 m/s 738 mmHg 91%
07:00 +13°C° 2.7 mm 1 m/s 738 mmHg 94%
08:00 +13°C° 2.7 mm 2 m/s 738 mmHg 97%
09:00 +13°C° 2.1 mm 2 m/s 738 mmHg 97%
10:00 +13°C° 2.1 mm 2 m/s 739 mmHg 97%
11:00 +13°C° 2.1 mm 2 m/s 739 mmHg 96%
12:00 +14°C° 0.2 mm 2 m/s 739 mmHg 94%
13:00 +14°C° 0.2 mm 2 m/s 739 mmHg 91%
14:00 +15°C° 0.2 mm 2 m/s 739 mmHg 88%
15:00 +15°C° 0 mm 2 m/s 739 mmHg 87%
16:00 +15°C° 0 mm 2 m/s 738 mmHg 87%
17:00 +15°C° 0 mm 2 m/s 738 mmHg 86%
18:00 +14°C° 0 mm 1 m/s 739 mmHg 89%
19:00 +13°C° 0 mm 1 m/s 739 mmHg 91%
20:00 +12°C° 0 mm 1 m/s 739 mmHg 94%
21:00 +12°C° 0 mm 1 m/s 739 mmHg 94%
22:00 +12°C° 0 mm 2 m/s 739 mmHg 95%
23:00 +10°C° 0 mm 2 m/s 739 mmHg 96%

30 Septembrie, Miercuri

Timp Temperatura Precipitaţii Vânt Presiune Umiditate
00:00 +12°C° 0 mm 2 m/s 739 mmHg 96%
01:00 +12°C° 0 mm 2 m/s 739 mmHg 96%
02:00 +12°C° 0 mm 2 m/s 738 mmHg 97%
03:00 +12°C° 0 mm 2 m/s 738 mmHg 96%
04:00 +12°C° 0 mm 2 m/s 738 mmHg 96%
05:00 +12°C° 0 mm 2 m/s 738 mmHg 96%
06:00 +12°C° 0 mm 2 m/s 738 mmHg 95%
07:00 +13°C° 0 mm 2 m/s 737 mmHg 95%
08:00 +12°C° 0 mm 3 m/s 737 mmHg 94%
09:00 +12°C° 0.4 mm 3 m/s 737 mmHg 93%
10:00 +12°C° 0.4 mm 4 m/s 737 mmHg 92%
11:00 +13°C° 0.4 mm 4 m/s 737 mmHg 91%
12:00 +12°C° 2.3 mm 4 m/s 736 mmHg 92%
13:00 +12°C° 2.3 mm 4 m/s 736 mmHg 94%
14:00 +12°C° 2.3 mm 4 m/s 736 mmHg 96%
15:00 +12°C° 1.6 mm 4 m/s 736 mmHg 96%
16:00 +11°C° 1.6 mm 4 m/s 736 mmHg 95%
17:00 +11°C° 1.6 mm 3 m/s 735 mmHg 95%
18:00 +11°C° 0.3 mm 3 m/s 735 mmHg 95%
19:00 +11°C° 0.3 mm 3 m/s 735 mmHg 95%
20:00 +11°C° 0.3 mm 4 m/s 735 mmHg 95%
21:00 +11°C° 0.1 mm 3 m/s 735 mmHg 95%
22:00 +11°C° 0.1 mm 3 m/s 735 mmHg 96%
23:00 +11°C° 0.1 mm 3 m/s 734 mmHg 96%

1 Octombrie, Joi

Timp Temperatura Precipitaţii Vânt Presiune Umiditate
00:00 +11°C° 0.3 mm 3 m/s 734 mmHg 96%
01:00 +11°C° 0.3 mm 4 m/s 734 mmHg 96%
02:00 +11°C° 0.3 mm 4 m/s 733 mmHg 96%
03:00 +11°C° 1.4 mm 4 m/s 733 mmHg 96%
04:00 +11°C° 1.4 mm 4 m/s 733 mmHg 97%
05:00 +11°C° 1.4 mm 4 m/s 733 mmHg 97%
06:00 +11°C° 0.4 mm 4 m/s 733 mmHg 96%
07:00 +11°C° 0.4 mm 3 m/s 733 mmHg 96%
08:00 +11°C° 0.4 mm 3 m/s 733 mmHg 96%
09:00 +11°C° 0.1 mm 3 m/s 732 mmHg 95%
10:00 +12°C° 0.1 mm 3 m/s 732 mmHg 94%
11:00 +12°C° 0.1 mm 3 m/s 732 mmHg 94%
12:00 +12°C° 0.1 mm 3 m/s 732 mmHg 93%
13:00 +12°C° 0.1 mm 3 m/s 732 mmHg 92%
14:00 +13°C° 0.1 mm 3 m/s 732 mmHg 91%
15:00 +14°C° 0.2 mm 2 m/s 732 mmHg 92%
16:00 +13°C° 0.2 mm 2 m/s 732 mmHg 93%
17:00 +13°C° 0.2 mm 1 m/s 732 mmHg 95%
18:00 +13°C° 0.3 mm 1 m/s 732 mmHg 96%
19:00 +13°C° 0.3 mm 1 m/s 732 mmHg 96%
20:00 +13°C° 0.3 mm 1 m/s 733 mmHg 97%
21:00 +13°C° 0.1 mm 1 m/s 733 mmHg 97%
22:00 +13°C° 0.1 mm 1 m/s 733 mmHg 97%
23:00 +13°C° 0.1 mm 1 m/s 733 mmHg 97%
Arată mai mult